FW7641 Weather Reports


Display with metric or nautical units.
time (UTC)temp
F
wind
direction
speed
MPH
gust
MPH
rain 1hr
in
rain 24hr
in
rain mn
in
humidity
%
barometer
mb
20260507160509 48 36 5.0 11.0 0.00 0.71 0.55 89 1018.4
20260507154510 48 13 4.0 8.0 0.00 0.71 0.55 89 1018.5
20260507153510 48 23 5.0 9.0 0.00 0.71 0.55 89 1018.2
20260507151509 48 58 7.0 11.0 0.00 0.71 0.55 89 1018.2
20260507150513 48 28 7.0 12.0 0.00 0.71 0.55 89 1018.1
20260507145510 48 46 6.0 10.0 0.00 0.71 0.55 89 1018.0
20260507144509 48 46 6.0 10.0 0.00 0.71 0.55 89 1018.0
20260507143509 48 48 5.0 11.0 0.00 0.71 0.55 88 1018.0
20260507142509 48 56 7.0 12.0 0.00 0.71 0.55 89 1017.8
20260507140509 48 49 6.0 12.0 0.00 0.71 0.55 89 1017.7
20260507135509 48 38 6.0 11.0 0.00 0.71 0.55 89 1017.6
20260507134509 48 38 6.0 11.0 0.00 0.71 0.55 89 1017.6
20260507133509 48 14 6.0 11.0 0.01 0.71 0.55 89 1017.6
20260507132509 48 67 6.0 11.0 0.02 0.71 0.55 90 1017.4
20260507131509 48 67 6.0 11.0 0.02 0.71 0.55 90 1017.4
20260507130510 48 54 6.0 12.0 0.02 0.71 0.55 89 1017.3
20260507124509 48 5 6.0 10.0 0.02 0.71 0.55 90 1017.3
20260507121509 48 53 6.0 10.0 0.02 0.69 0.54 89 1016.9
20260507115509 48 346 7.0 11.0 0.02 0.69 0.53 89 1016.4
20260507113509 48 52 6.0 10.0 0.02 0.69 0.53 90 1016.3
20260507110509 48 5 6.0 11.0 0.01 0.68 0.52 90 1016.1
20260507105509 47 27 6.0 10.0 0.00 0.67 0.51 90 1016.1
20260507104509 47 27 6.0 10.0 0.00 0.67 0.51 90 1016.1
20260507102509 47 38 6.0 11.0 0.00 0.67 0.51 90 1015.8
20260507101509 47 38 6.0 11.0 0.00 0.67 0.51 90 1015.8
20260507100509 47 42 6.0 12.0 0.01 0.67 0.51 90 1015.7
20260507095509 47 25 5.0 11.0 0.02 0.67 0.51 90 1015.6
20260507094509 47 25 5.0 11.0 0.02 0.67 0.51 90 1015.6
20260507093509 47 61 7.0 13.0 0.02 0.67 0.51 90 1015.4
20260507092509 46 63 7.0 12.0 0.03 0.67 0.51 90 1015.1
20260507091509 46 63 7.0 12.0 0.03 0.67 0.51 90 1015.1
20260507090509 47 51 6.0 12.0 0.06 0.66 0.50 90 1014.9
20260507085509 46 51 8.0 13.0 0.10 0.65 0.50 90 1014.8
20260507084509 46 51 8.0 13.0 0.10 0.65 0.50 90 1014.8
20260507083509 46 14 5.0 11.0 0.13 0.65 0.49 90 1014.6
20260507082509 46 40 4.0 9.0 0.14 0.64 0.48 90 1014.5
20260507081509 46 40 4.0 9.0 0.14 0.64 0.48 90 1014.5
20260507080509 46 40 4.0 9.0 0.13 0.61 0.45 90 1014.5
20260507075509 46 45 6.0 12.0 0.09 0.55 0.39 90 1014.3
20260507074509 46 45 6.0 12.0 0.09 0.55 0.39 90 1014.3
20260507073509 46 36 7.0 11.0 0.06 0.51 0.35 90 1014.2
20260507072509 46 46 6.0 10.0 0.06 0.50 0.34 90 1014.0
20260507071509 46 46 6.0 10.0 0.06 0.50 0.34 90 1014.0
20260507070509 46 11 7.0 13.0 0.05 0.47 0.31 90 1013.8
20260507065509 46 44 4.0 10.0 0.06 0.46 0.31 90 1013.8
20260507064509 46 44 4.0 10.0 0.06 0.46 0.31 90 1013.8
20260507063509 46 44 5.0 9.0 0.07 0.45 0.29 90 1013.5
20260507062509 46 59 5.0 10.0 0.08 0.43 0.28 90 1013.4
20260507061509 46 59 5.0 10.0 0.08 0.43 0.28 90 1013.4
20260507060509 46 31 6.0 10.0 0.08 0.43 0.27 90 1013.2
20260507055509 46 42 6.0 12.0 0.06 0.40 0.24 90 1013.0
20260507054509 46 42 6.0 12.0 0.06 0.40 0.24 90 1013.0
20260507053509 46 38 7.0 14.0 0.05 0.38 0.22 90 1012.9
20260507052509 47 34 7.0 14.0 0.03 0.35 0.20 89 1012.7
20260507050509 48 48 6.0 10.0 0.03 0.35 0.19 90 1012.6
20260507045509 48 65 6.0 10.0 0.03 0.34 0.18 90 1012.4
20260507044509 48 65 6.0 10.0 0.03 0.34 0.18 90 1012.4
20260507043509 48 51 5.0 12.0 0.02 0.33 0.17 90 1012.3
20260507041509 48 46 6.0 10.0 0.02 0.32 0.17 90 1012.2
20260507035509 48 64 7.0 11.0 0.01 0.31 0.15 90 1012.0
20260507034509 48 64 7.0 11.0 0.01 0.31 0.15 90 1012.0
20260507033509 48 17 6.0 12.0 0.01 0.31 0.15 90 1011.8
20260507032509 48 21 5.0 9.0 0.01 0.31 0.15 90 1011.9
20260507031509 48 21 5.0 9.0 0.01 0.31 0.15 90 1011.9
20260507030509 48 27 5.0 9.0 0.02 0.31 0.15 90 1011.8
20260507025509 49 25 4.0 8.0 0.02 0.31 0.14 90 1011.8
20260507024509 49 25 4.0 8.0 0.02 0.31 0.14 90 1011.8
20260507023509 49 26 4.0 9.0 0.02 0.31 0.14 90 1011.7
20260507022509 49 42 4.0 8.0 0.02 0.31 0.14 90 1011.8
20260507021509 49 42 4.0 8.0 0.02 0.31 0.14 90 1011.8
20260507020509 49 53 5.0 10.0 0.01 0.29 0.13 89 1011.6
20260507015509 49 38 4.0 9.0 0.00 0.29 0.12 90 1011.4
20260507014509 49 38 4.0 9.0 0.00 0.29 0.12 90 1011.4
20260507013509 49 36 5.0 10.0 0.00 0.29 0.12 90 1011.1
20260507012509 49 5 4.0 8.0 0.00 0.29 0.12 90 1011.1
20260507010509 49 45 4.0 9.0 0.00 0.29 0.12 90 1011.0
20260507005508 50 42 5.0 9.0 0.00 0.29 0.12 90 1010.8
20260507004509 50 42 5.0 9.0 0.00 0.29 0.12 90 1010.8
20260507003509 50 34 4.0 8.0 0.01 0.29 0.12 90 1010.8
20260507002508 50 50 5.0 8.0 0.01 0.29 0.12 90 1010.8
20260507001508 50 50 5.0 8.0 0.01 0.29 0.12 90 1010.8
20260507000508 50 355 6.0 11.0 0.01 0.29 0.12 89 1010.7
20260506235509 51 41 6.0 9.0 0.01 0.30 0.12 89 1010.4
20260506234509 51 41 6.0 9.0 0.01 0.30 0.12 89 1010.4
20260506233509 51 47 5.0 12.0 0.04 0.29 0.11 89 1010.2
20260506232508 51 49 5.0 11.0 0.07 0.29 0.11 89 1010.4
20260506231508 51 49 5.0 11.0 0.07 0.29 0.11 89 1010.4
20260506225508 51 55 5.0 10.0 0.11 0.35 0.11 89 1010.5
20260506224509 51 55 5.0 10.0 0.11 0.35 0.11 89 1010.5
20260506223508 51 61 6.0 9.0 0.10 0.31 0.07 88 1010.3
20260506222508 52 81 4.0 10.0 0.13 0.28 0.04 88 1010.2
20260506220508 52 78 2.0 5.0 0.20 0.28 0.04 88 1010.4
20260506215508 52 71 5.0 10.0 0.16 0.47 0.47 87 1010.4
20260506214508 52 71 5.0 10.0 0.16 0.47 0.47 87 1010.4
20260506213509 53 57 6.0 11.0 0.13 0.44 0.44 87 1010.1
20260506212508 54 44 5.0 11.0 0.07 0.39 0.39 86 1010.0
20260506210508 54 339 4.0 11.0 0.00 0.31 0.31 85 1010.3
20260506205508 54 348 4.0 8.0 0.00 0.45 0.31 85 1010.0
20260506204508 54 348 4.0 8.0 0.00 0.45 0.31 85 1010.0
20260506202508 54 337 2.0 5.0 0.00 0.45 0.31 86 1009.7
20260506201508 54 337 2.0 5.0 0.00 0.45 0.31 86 1009.7
20260506194508 54 40 2.0 5.0 0.00 0.46 0.31 85 1009.2
20260506193508 54 57 3.0 6.0 0.00 0.46 0.31 85 1009.0
20260506192508 55 24 3.0 9.0 0.00 0.46 0.31 84 1008.9
20260506190508 55 56 3.0 5.0 0.00 0.46 0.31 84 1008.7
20260506185508 56 59 4.0 10.0 0.00 0.46 0.31 83 1008.6
20260506184508 56 59 4.0 10.0 0.00 0.46 0.31 83 1008.6
20260506183508 56 46 4.0 8.0 0.00 0.46 0.31 82 1008.4
20260506181508 57 44 5.0 12.0 0.00 0.46 0.31 82 1008.4
20260506180508 57 57 7.0 12.0 0.00 0.46 0.31 80 1008.4
20260506175512 58 15 9.0 15.0 0.00 0.46 0.31 79 1008.3
20260506174508 58 15 9.0 15.0 0.00 0.46 0.31 79 1008.3
20260506173508 59 50 9.0 15.0 0.00 0.46 0.31 80 1008.2
20260506172508 59 53 9.0 15.0 0.00 0.46 0.31 80 1008.1
20260506171508 59 53 9.0 15.0 0.00 0.46 0.31 80 1008.1
20260506170508 60 46 6.0 13.0 0.00 0.46 0.31 80 1007.9
20260506163508 60 17 8.0 14.0 0.00 0.46 0.31 78 1007.9
20260506162508 62 65 10.0 16.0 0.00 0.46 0.31 76 1007.8
20260506161508 62 65 10.0 16.0 0.00 0.46 0.31 76 1007.8